Regional Weather Roundup
Issued by NWS

Home | Current Version | Previous Version | Graphics & Text | Print | Product List | Glossary On
Versions: 1 2 3 4 5 6 7 8 9 10 11 12 13 14 15 16 17 18 19 20 21 22 23 24 25 26 27 28 29 30 31 32 33 34 35 36 37 38 39 40 41 42 43 44 45 46 47 48 49 50
000
ASUS43 KDTX 200401
RWRMI
MICHIGAN HOURLY REGIONAL WEATHER ROUNDUP
NATIONAL WEATHER SERVICE DETROIT/PONTIAC MI
1200 AM EDT WED SEP 20 2017

NOTE: "FAIR" INDICATES FEW OR NO CLOUDS BELOW 12,000 FEET WITH NO
SIGNIFICANT WEATHER AND/OR OBSTRUCTION TO VISIBILITY.

MIZ047>049-052>055-059>063-066>070-074>076-081>083-200500-
SOUTHEAST LOWER MICHIGAN

CITY           SKY/WX    TMP DP  RH WIND       PRES   REMARKS
ADRIAN         CLOUDY    67  66  97 E3        29.97S FOG
ALMA           CLOUDY    65  64  94 N7        29.98F FOG
ANN ARBOR      CLOUDY    68  67  96 E5        29.96F FOG
BAD AXE        CLOUDY    66  65  94 CALM      29.99F FOG
CARO           CLOUDY    66  64  93 CALM      29.97F FOG
DETROIT CITY   CLOUDY    68  68 100 E3        29.97F FOG
DETROIT        CLOUDY    68  67  96 CALM      29.97S FOG
FLINT          LGT RAIN  67  66  97 E6        29.98S FOG
GROSSE ILE     PTCLDY    67  66  96 CALM      29.96S FOG
HILLSDALE      CLOUDY    68  64  88 E5        29.97R FOG
HOWELL         CLOUDY    67  66  97 CALM      29.98S FOG

CITY           SKY/WX    TMP DP  RH WIND       PRES   REMARKS
JACKSON        CLOUDY    69  65  86 E6        29.97R FOG
LAMBERTVILLE   CLOUDY    69  67  92 CALM      29.96R FOG
LANSING        CLOUDY    67  64  90 E3        29.98R FOG
LAPEER         CLOUDY    67  66  96 CALM      29.99S FOG
MASON          CLOUDY    68  65  93 CALM      29.97S FOG
MONROE         PTCLDY    69  67  93 E3        29.95S FOG
MT. CLEMENS    PTCLDY    69  69 100 NE3       29.96F
PONTIAC        CLOUDY    68  68 100 E5        29.97S FOG
PORT HOPE        N/A     67  66  97 SE6       29.97F
PORT HURON     CLOUDY    68  66  94 CALM      29.98S FOG
TRI CITIES     CLOUDY    68  67  96 E6        29.99S FOG
MIDLAND        CLOUDY    65  64  96 NE3       29.98S FOG
TROY           CLOUDY    69  68  96 E3        29.99F FOG
SAGINAW HB     CLOUDY    64  64 100 E5        29.97F FOG
$$
MIZ043>046-050>051-056>058-064>065-071>073-077>080-200500-
SOUTHWEST LOWER MICHIGAN

CITY           SKY/WX    TMP DP  RH WIND       PRES   REMARKS
BATTLE CREEK   CLOUDY    67  66  97 E6        29.96S FOG
BENTON HARBOR  CLOUDY    69  64  84 CALM      29.94S
BIG RAPIDS     CLOUDY    60  58  92 CALM      29.98S
COLDWATER      CLOUDY    67  67 100 E5        29.96S
FREMONT        FAIR      63  62  99 E3        29.96S
HOLLAND        CLEAR     64  60  87 CALM      29.96R
GRAND RAPIDS   CLOUDY    67  64  90 E8        29.96S
IONIA          CLOUDY    65  64  97 NE5       29.96F
KALAMAZOO      CLOUDY    68  64  87 E3        29.96R FOG
LUDINGTON      CLEAR     55  54  96 CALM      29.95S
MARSHALL       CLOUDY    66  65  98 CALM      29.95F FOG
MOUNT PLEASANT CLOUDY    66  65  98 NE6       29.98F FOG
MUSKEGON       CLEAR     62  59  90 E5        29.96R
SOUTH HAVEN    CLOUDY    67  65  91 CALM      29.94F
$$
MIZ016>042-200500-
NORTHERN LOWER MICHIGAN

CITY           SKY/WX    TMP DP  RH WIND       PRES   REMARKS
ALPENA         CLOUDY    65  65 100 SE3       30.02S
BEAVER ISLAND  CLEAR     61  58  92 E8        29.99F
BELLAIRE       CLEAR     56  54  95 CALM      30.00S
CADILLAC       MOCLDY    61  57  89 CALM      29.99S
CHARLEVOIX     CLEAR     62  56  82 SE6       30.02S
FRANKFORT      CLEAR     56  56  99 CALM      29.96S
GAYLORD        CLOUDY    59  57  93 SE3       30.02S
GRAYLING       CLOUDY    60  57  90 NE3       30.02S
HARBOR SPRINGS MOCLDY    59  57  95 E9        30.01S
HOUGHTON LAKE  CLOUDY    63  60  90 E7        30.01S
MANISTEE       CLEAR     54  53  97 E3        29.96S
OSCODA         CLOUDY    67  66  97 W5        29.99F FOG
PELLSTON       CLOUDY    60  59  96 SE9       30.02S
ROGERS CITY    CLOUDY    63  61  94 CALM      30.03S
TRAVERSE CITY  CLEAR     62  58  86 CALM      29.96S
$$
MIZ007>008-015-200500-
EASTERN UPPER MICHIGAN

CITY           SKY/WX    TMP DP  RH WIND       PRES   REMARKS
KINROSS        CLOUDY    58  57  97 SE6       30.03S
MACKINAC ISLAN CLOUDY    63  62  97 SE8       30.02S
NEWBERRY       CLEAR     56  55  97 SE8       29.99F
S. S. MARIE    CLEAR     59  55  87 CALM      30.02S
MUNISING         N/A     58  54  86 S7        29.95F
$$
MIZ004>006-011>014-085-200500-
CENTRAL UPPER MICHIGAN

CITY           SKY/WX    TMP DP  RH WIND       PRES   REMARKS
MANISTIQUE     CLEAR     59  54  81 E8        29.97F
MENOMINEE      CLEAR     63  59  87 E5        29.94F
SAWYER-GWINN   CLEAR     55  51  88 S3        29.97S
$$
MIZ001>003-009>011-084-200500-
WESTERN UPPER MICHIGAN

CITY           SKY/WX    TMP DP  RH WIND       PRES   REMARKS
IRON MOUNTAIN  CLEAR     54  51  90 CALM      29.94F
HOUGHTON       CLOUDY    60  54  80 E7        29.90F
COPPER HARBOR    N/A     63  53  70 SW12G21   29.90F
IRONWOOD       CLOUDY    64  58  80 SE10G21   29.83F
$$

ABBREVIATIONS USED IN REMARKS
   TC - TEMPERATURE IN CELSIUS
  WCI - WIND CHILL INDEX
   HX - HEAT INDEX
  VSB - VISIBILITY





USA.gov is the U.S. government's official web portal to all federal, state and local government web resources and services.